Regional Weather Roundup
Issued by NWS

Home | Current Version | Previous Version | Graphics & Text | Print | Product List | Glossary On
Versions: 1 2 3 4 5 6 7 8 9 10 11 12 13 14 15 16 17 18 19 20 21 22 23 24 25 26 27 28 29 30 31 32 33 34 35 36 37 38 39 40 41 42 43 44 45 46 47 48 49 50
000
ASUS43 KFSD 232302
RWRSD

WEATHER ROUNDUP FOR SOUTH DAKOTA
NATIONAL WEATHER SERVICE SIOUX FALLS SD
600 PM CDT FRI JUN 23 2017

NOTE: "FAIR" INDICATES FEW OR NO CLOUDS BELOW 12,000 FEET WITH NO
SIGNIFICANT WEATHER AND/OR OBSTRUCTIONS TO VISIBILITY.


SDZ001>005-009-010-012>017-240000-
NORTHWEST AND NORTH CENTRAL SOUTH DAKOTA

CITY           SKY/WX    TMP DP  RH WIND       PRES   REMARKS
BUFFALO          N/A     68  28  22 NW26G36   30.09F
FAITH            N/A     68  30  24 N28G33    30.11S
MOBRIDGE       MOSUNNY   72  33  24 NW20G26   30.03S
$$

SDZ012>016-024>037-041>051-057-063-072>074-240000-
SOUTHWEST AND SOUTH CENTRAL SOUTH DAKOTA

CITY           SKY/WX    TMP DP  RH WIND       PRES   REMARKS
RAPID CTY ARPT SUNNY     70  29  21 NW26G35   30.16R
PIERRE         SUNNY     69  32  25 NW25G32   30.08R
CUSTER         MOSUNNY   63  22  20 NW18G28   30.22S
ELLSWORTH AFB  SUNNY     69  29  22 NW24G32   30.15F
PHILIP         SUNNY     72  29  20 N18G29    30.11R
PINE RIDGE     SUNNY     71  39  31 NE13      30.15R
SPEARFISH      FAIR      64  30  27 NW20G26   30.21S
WINNER         FAIR      74  31  20 NW24G36   30.08R
$$

SDZ004>011-016>023-039-040-240000-
NORTHEAST SOUTH DAKOTA

CITY           SKY/WX    TMP DP  RH WIND       PRES   REMARKS
ABERDEEN       PTSUNNY   66  38  35 NW16      30.01R
WATERTOWN      MOSUNNY   64  43  46 NW15G25   29.98S
BROOKINGS      MOSUNNY   65  46  50 NW18      29.99S
SISSETON         N/A     68  39  34 NW17G29   29.94S
$$

SDZ017-020-022-023-036>040-048>070-240000-
SOUTHEAST SOUTH DAKOTA

CITY           SKY/WX    TMP DP  RH WIND       PRES   REMARKS
SIOUX FALLS    MOSUNNY   69  47  45 NW17G28   29.99S
HURON          SUNNY     70  38  31 NW20G29   30.02R
CHAMBERLAIN    SUNNY     73  35  25 NW20G25   30.06S
MITCHELL       SUNNY     71  38  29 NW18G28   30.03R
YANKTON        MOSUNNY   71  42  35 NW15G23   30.01S
$$

ABBREVIATIONS USED IN REMARKS
   TC - TEMPERATURE IN CELSIUS
  WCI - WIND CHILL INDEX
   HX - HEAT INDEX
  VSB - VISIBILITY




USA.gov is the U.S. government's official web portal to all federal, state and local government web resources and services.